{"data":{"norad_id":39070,"epoch":"2026-09-19T22:21:51.427008Z","epoch_age_seconds":71112,"freshness":"FRESH","line1":"1 39070U 13004A   26262.93184522  .00000077  00000+0  00000+0 0  9991","line2":"2 39070   3.6655  32.6383 0003260  42.3980  84.8624  1.00270108 47640","mean_motion":1.00270108,"eccentricity":0.000326,"inclination_deg":3.6655,"raan_deg":32.6383,"arg_perigee_deg":42.398,"mean_anomaly_deg":84.8624,"bstar":0,"rev_number":4764,"period_min":1436.1209224987,"perigee_km":35773.319235838,"apogee_km":35800.810947602,"semimajor_km":42165.20209172,"source":"CELESTRAK","updated_at":"2026-09-20T09:00:35.180113Z"}}